Regional Weather Roundup
Issued by NWS

Home | Current Version | Previous Version | Graphics & Text | Print | Product List | Glossary On
Versions: 1 2 3 4 5 6 7 8 9 10 11 12 13 14 15 16 17 18 19 20 21 22 23 24 25 26 27 28 29 30 31 32 33 34 35 36 37 38 39 40 41 42 43 44 45 46 47 48 49 50
000
ASUS45 KTFX 280204
RWRMT
MONTANA HOURLY WEATHER ROUNDUP
NATIONAL WEATHER SERVICE GREAT FALLS MT
704 PM MST THU NOV 27 2014

NOTE: "FAIR" INDICATES FEW OR NO CLOUDS BELOW 12000 FEET WITH NO
SIGNIFICANT WEATHER AND/OR OBSTRUCTIONS TO VISIBILITY.

* THESE STATIONS ARE NOT UNDER NWS QUALITY CONTROL. THEY DO NOT
   REPORT WEATHER SUCH AS PRECIPITATION OR FOG.

MTZ001>007-043-280300-
WEST OF THE DIVIDE
CITY           SKY/WX    TMP DP  RH WIND       PRES   REMARKS
KALISPELL      CLOUDY    43  36  76 S8        29.74F
MISSOULA       CLOUDY    48  37  66 W9        29.86F
BUTTE          CLOUDY    45  34  65 SW13G18   29.94S
MULLAN PASS    LGT RAIN  36  36 100 SW16G29   29.81F VSB 1/2  WCI  26
* ESSEX        N/A       37  37 100 S2         N/A
* LINCOLN      N/A       35  34  96 W1         N/A
* LOOKOUT PASS N/A       41  40  96 S9G14      N/A
* POLSON       N/A       46  39  77 S4G14      N/A
* RONAN APT    PTCLDY    45  37  74 E5         N/A
* SEELEY LAKE  N/A       45  36  71 S4G13      N/A
* THOMP F APT  PTCLDY    41  30  65 E7G16      N/A
* YAAK HILL    N/A       45  43  93 SW1        N/A
$$

MTZ008-052>055-280300-
SOUTHWEST MONTANA
CITY           SKY/WX    TMP DP  RH WIND       PRES   REMARKS
BOZEMAN        CLOUDY    50  30  46 SW12G24   29.88F
DILLON         CLOUDY    46  30  54 SW14      30.00R
* W YELLOWSTON CLOUDY    37  30  76 SW3        N/A
* ENNIS APT    CLOUDY    46  32  58 S16G24     N/A
* THREE FORKS  CLOUDY    46  46 100 SW20G31    N/A
* BOULDER HILL N/A       45  27  49 S18G26     N/A
* MONIDA PASS  N/A       36  30  79 S14        N/A   WCI  27
* RAYNOLDS PAS N/A       39  22  51 S12        N/A   WCI  32
* WHITEHALL    N/A       52  35  52 SW14G24    N/A
* WISE RIVER   N/A       40  35  82 W13G23     N/A   WCI  32
$$

MTZ009>010-012-014-046-048-049-054-280300-
EAST SLOPES AND CENTRAL MONTANA
CITY           SKY/WX    TMP DP  RH WIND       PRES   REMARKS
CUT BANK       FAIR      39  34  82 SW17      29.66F WCI  30
GREAT FALLS    CLEAR     50  36  59 SW14      29.71F
HELENA         CLOUDY    46  34  63 E6        29.81F
MALMSTROM AFB  CLEAR     52  36  55 SW20G29   29.72F
* DEARBORN     N/A       56  35  45 S20G27     N/A
* EAST GLACIER N/A       38  36  93 W11G19     N/A   WCI  31
* MONARCH      N/A       47  23  39 SW22G38    N/A
* PENDROY      N/A       42  34  73 E2         N/A
* ROGERS PASS  N/A       40  35  82 E4G17      N/A
* SAINT MARY   N/A       40  38  93 S6G16      N/A   WCI  36
* SWEET GRASS  N/A       27  27 100 NE1G6      N/A
$$

MTZ011-013-016-021-035-040-045-047-050-051-280300-
NORTH CENTRAL MONTANA
CITY           SKY/WX    TMP DP  RH WIND       PRES   REMARKS
HAVRE          FOG       28  28 100 CALM      29.70S VSB 3/4
LEWISTOWN      MOCLDY    45  34  65 SW12      29.76F
* N BAR RANCH  CLEAR     50  28  43 W12       29.77F
* CHESTER      N/A       36  31  82 S3         N/A
* DENTON       N/A       44  28  53 S4G9       N/A
* GEYSER       N/A       46  27  48 W8         N/A
* JUDITH GAP   N/A       45  29  54 SW17       N/A
* LOMA         N/A       47  36  66 SW7        N/A
$$

MTZ017>020-022>027-061-062-280300-
NORTHEAST MONTANA
CITY           SKY/WX    TMP DP  RH WIND       PRES   REMARKS
GLASGOW        FOG       25  21  85 E14       29.74F VSB 2 1/2 WCI  13
GLENDIVE       CLEAR     30  27  89 S7        29.76F WCI  23
JORDAN         PTCLDY    32  30  92 CALM      29.73F
SIDNEY         PTCLDY    23  19  85 N8        29.81F WCI  14
WOLF POINT     MOCLDY    23  19  85 E10       29.80S WCI  13
* BEAVER HILL  N/A       36  30  79 SW14G19    N/A   WCI  27
* CIRCLE       N/A       32  29  89 N2         N/A
* LINDSAY DVD  N/A       43  33  68 SW12       N/A
* NAVAJO       N/A       16  14  92 E9         N/A   WCI   5
* SACO         N/A       26  24  92 NE12       N/A   WCI  15
$$

MTZ028>042-056>058-280300-
SOUTHCENTRAL AND SOUTHEAST MONTANA
CITY           SKY/WX    TMP DP  RH WIND       PRES   REMARKS
BAKER          MOCLDY    37  30  76 W8        29.79S WCI  31
BILLINGS       MOCLDY    46  28  50 SW17G25   29.80F
LIVINGSTON     MOCLDY    54  30  40 SW32G45   29.84S
MILES CITY     CLOUDY    39  34  82 S6        29.77F WCI  35
* LAUREL APT   PTCLDY    46  23  40 SW9        N/A
* ALZADA       N/A       40  30  68 N1         N/A
* HYSHAM       N/A       49  23  36 W4G9       N/A
* LAME DEER    N/A       47  28  48 SW9        N/A
* REED POINT   N/A       37  32  82 N/A        N/A
* ROSCOE HILL  N/A       52  14  22 SW21G49    N/A
$$

REGIONAL REPORTS...DAKOTAS
CITY           SKY/WX    TMP DP  RH WIND       PRES   REMARKS
WILLISTON      PTCLDY    18  12  77 E8        29.85R WCI   8
DICKINSON      CLEAR     21  19  92 S9        29.76F WCI  11
BEACH          CLEAR     36  32  85 SW13      29.76F WCI  27
CROSBY         CLOUDY    16  10  77 SE14      29.89S WCI   2
BISMARCK       CLOUDY    12   7  80 SE13      29.96F WCI  -3
GRAND FORKS    LGT SNOW   7   1  76 SE9       30.21F VSB 3    WCI  -6
FARGO          LGT SNOW   9   0  66 SE14      30.21F VSB 2 1/2 WCI  -7
BUFFALO SD     CLEAR     28  23  81 S6        29.75F WCI  21
RAPID CITY     CLEAR     27  23  85 CALM      29.87S
$$

REGIONAL REPORTS...WYOMING/IDAHO/WASHINGTON
CITY           SKY/WX    TMP DP  RH WIND       PRES   REMARKS
GILLETTE       PTCLDY    45  28  51 SW10      29.91S
SHERIDAN       MOCLDY    48  27  44 VRB6      29.85F
CODY           MOCLDY    54  28  37 SW10G25   29.94F
YELLOWSTONE LA MOCLDY    34  28  79 CALM      30.14F
SALMON         CLOUDY    48  37  66 CALM      30.01S
MULLAN PASS    LGT RAIN  36  36 100 SW16G29   29.81S VSB 1/2  WCI  26
SAND POINT     CLOUDY    48  43  83 SW3       29.74F
SPOKANE        PTCLDY    50  43  77 SW20G28   29.76F

$$



USA.gov is the U.S. government's official web portal to all federal, state and local government web resources and services.